Weather in Kuliga

Russia / Udmurt Republic     58°10′59″N   53°45′43″E
temp.,
°C
wind,
m/s
gust,
m/s
humid.,
%
clouds,
%
prec.,
mm/h
press.,
hPa
HPBL,
m
20 june, sun
sun2001:00+19nw513785 0.0 1013672
04:00+16nnw410821 0.0 1016586
07:00+16nnw410560 0.0 1018752
10:00+18nnw59370 0.0 10191306
13:00+20nnw58320 0.0 10201768
16:00+21nnw58315 0.0 10201883
19:00+19n374579 0.0 1020474
22:00+13ne22580 0.0 102135
21 june, mon
mon2101:00+12e226012 0.0 102251
04:00+9se257126 0.0 1024107
07:00+14sse365298 0.0 1023291
10:00+19s464423 0.0 1022701
13:00+22ssw454998 0.1 1020937
16:00+26wsw565243 0.1 10181716
19:00+20wsw379272 1.9 1017261
22:00+18sw259515 2.1 101891
22 june, tue
tue2201:00+17wsw37977 0.1 1018125
04:00+17w26965 0.1 1018107
07:00+21wnw27855 0.0 1018198
10:00+28nw47445 0.0 10181163
13:00+30nw573419 0.0 10183043
16:00+31nnw463119 0.0 10172873
19:00+25w2364100 0.0 101792
22:00+20nnw398186 0.0 1018234
23 june, wed
wed2301:00+17ssw119336 1.0 101813
04:00+17ene119350 1.0 101911
07:00+20ene128797 0.0 1019144
10:00+22se127585 0.0 1019439
13:00+24ese226748 0.0 1020659
16:00+26e226286 0.3 10201025
19:00+23ese3677100 0.2 1019369
22:00+18ssw2799100 1.8 1020192
24 june, thu
thu2401:00+17s239967 0.0 102068
04:00+17ssw2399100 0.0 101975
07:00+20sw359476 0.5 1019316
10:00+25wsw346113 0.5 1018810
13:00+28w455291 0.0 10171393
16:00+28wsw4556100 0.0 1015860
19:00+19sw3791100 3.2 1015127
22:00+19w31095100 3.8 1014242